Location: Cz?stochówka
(50.8142°N, 19.0915°E)
Time: 14:18:40
(UTC+00:00)

SeaSat 1 - Visible Passes

Search period start: 19 April 2026 00:00
Search period end: 29 April 2026 00:00
Orbit: 736 x 740 km, 108.0° (Epoch: 19 April)

Date Brightness Start Highest point End Pass type
(mag) Time Alt. Az. Time Alt. Az. Time Alt. Az.
19 Apr 4.6 19:15:41 10° ENE 19:18:33 16° NNE 19:21:25 10° N visible
19 Apr 2.8 20:54:08 47° E 20:55:03 55° NE 20:59:51 10° NNW visible
19 Apr 3.9 22:33:44 26° W 22:33:44 26° W 22:36:53 10° NW visible
20 Apr 3.9 20:08:36 19° E 20:10:57 27° NE 20:15:04 10° NNW visible
20 Apr 2.5 21:48:12 67° W 21:48:12 67° W 21:52:54 10° NW visible
21 Apr 4.6 19:24:15 10° ENE 19:27:07 16° NNE 19:30:00 10° N visible
21 Apr 2.8 21:02:39 46° E 21:03:37 55° NE 21:08:25 10° NNW visible
21 Apr 3.9 22:42:15 26° W 22:42:15 26° W 22:45:28 10° NW visible
22 Apr 3.9 20:17:06 18° E 20:19:32 27° NE 20:23:38 10° NNW visible
22 Apr 2.5 21:56:42 68° WSW 21:56:42 68° WSW 22:01:28 10° NW visible
22 Apr 4.8 23:36:18 10° W 23:36:18 10° W 23:36:24 10° W visible
23 Apr 4.7 19:32:50 10° ENE 19:35:41 16° NNE 19:38:32 10° N visible
23 Apr 2.8 21:11:08 45° E 21:12:12 54° NE 21:16:59 10° NNW visible
23 Apr 3.8 22:50:45 27° W 22:50:45 27° W 22:54:03 10° NW visible
24 Apr 3.9 20:25:35 18° E 20:28:06 27° NE 20:32:12 10° NNW visible
24 Apr 2.4 22:05:11 68° WSW 22:05:11 68° WSW 22:10:03 10° NW visible
24 Apr 4.8 23:44:47 10° W 23:44:47 10° W 23:45:00 10° W visible
25 Apr 4.7 19:41:25 10° ENE 19:44:15 16° NNE 19:47:06 10° N visible
25 Apr 2.9 21:19:37 44° E 21:20:45 54° NE 21:25:33 10° NNW visible
25 Apr 3.8 22:59:13 27° W 22:59:13 27° W 23:02:37 10° NW visible
26 Apr 4.0 20:34:02 17° E 20:36:40 27° NE 20:40:45 10° NNW visible
26 Apr 2.4 22:13:39 69° WSW 22:13:41 69° WSW 22:18:36 10° NW visible
26 Apr 4.8 23:53:15 11° W 23:53:15 11° W 23:53:36 10° W visible
27 Apr 4.7 19:50:01 10° ENE 19:52:50 16° NNE 19:55:39 10° N visible
27 Apr 2.9 21:28:04 42° E 21:29:19 54° NE 21:34:07 10° NNW visible
27 Apr 3.7 23:07:40 28° W 23:07:40 28° W 23:11:11 10° NW visible
28 Apr 4.0 20:42:29 17° E 20:45:14 27° NE 20:49:19 10° NNW visible
28 Apr 2.3 22:22:05 69° SW 22:22:15 69° WSW 22:27:10 10° NW visible
